Weather History for Rush City, MN

Change the Weather History Date:

Sunday, January 19, 2014

  Actual Average (KCBG) Record (KCBG)
Temperature  
Mean Temperature 26 °F -  
Max Temperature 34 °F 20 °F 43 °F (1981)
Min Temperature 17 °F -1 °F -32 °F (1970)
Degree Days  
Heating Degree Days 40    
Moisture  
Dew Point 22 °F    
Average Humidity 81    
Maximum Humidity 89    
Minimum Humidity 69    
Precipitation  
Precipitation 0.05 in - - ()
Sea Level Pressure  
Sea Level Pressure 29.53 in    
Wind  
Wind Speed 5 mph (West)    
Max Wind Speed 9 mph    
Max Gust Speed -    
Visibility 10 miles    
Events      
Averages and records for this station are not official NWS values.
T = Trace of Precipitation, MM = Missing Value Source: NWS Daily Summary

Daily Weather History Graph

Daily Weather History Graph

Search for Another Location

Airport:

Trip Planner

Search our weather history database for the weather conditions in past years. The results will help you decide how hot, cold, wet, or windy it might be!

Date:

Astronomy

Jan. 19, 2014 Rise Set
Actual Time 7:46 AM CST 4:59 PM CST
Civil Twilight 7:13 AM CST 5:32 PM CST
Nautical Twilight 6:36 AM CST 6:09 PM CST
Astronomical Twilight 6:01 AM CST 6:44 PM CST
Moon 8:51 PM CST (1/19) 9:04 AM CST (1/19)
Length of Visible Light 10h 19m
Length of Day
9h 13m
Waning Gibbous, 89% of the Moon is Illuminated
Jan 19
Waning Gibbous
Jan 23
Last Quarter
Jan 30
New
Feb 6
First Quarter
Feb 14
Full

Hourly Weather History & Observations

Time (CST) Temp. Windchill Dew Point Humidity Pressure Visibility Wind Dir Wind Speed Gust Speed Precip Events Conditions
12:15 AM 17.2 °F 7.8 °F 13.1 °F 84% 29.64 in 10.0 mi SSW 6.9 mph - N/A   Scattered Clouds
12:35 AM 17.2 °F 8.9 °F 13.1 °F 84% 29.62 in 10.0 mi SSW 5.8 mph - N/A   Clear
12:55 AM 17.4 °F 7.1 °F 13.6 °F 85% 29.61 in 10.0 mi SSW 8.1 mph - N/A   Scattered Clouds
1:15 AM 17.6 °F 8.2 °F 14.0 °F 86% 29.60 in 10.0 mi SSW 6.9 mph - N/A   Mostly Cloudy
1:35 AM 18.3 °F 10.2 °F 14.7 °F 86% 29.57 in 10.0 mi SSW 5.8 mph - N/A   Scattered Clouds
1:55 AM 19.0 °F 9.0 °F 15.6 °F 87% 29.56 in 10.0 mi SSW 8.1 mph - N/A   Scattered Clouds
2:15 AM 20.3 °F 9.8 °F 16.7 °F 86% 29.55 in 10.0 mi SSW 9.2 mph - N/A   Scattered Clouds
2:35 AM 21.2 °F 12.6 °F 17.6 °F 86% 29.54 in 10.0 mi SSW 6.9 mph - N/A   Mostly Cloudy
2:54 AM 21.7 °F 14.3 °F 18.0 °F 85% 29.54 in 10.0 mi SW 5.8 mph - N/A   Scattered Clouds
3:15 AM 22.8 °F 13.6 °F 18.7 °F 84% 29.54 in 10.0 mi SW 8.1 mph - N/A   Scattered Clouds
3:35 AM 22.6 °F 13.4 °F 18.7 °F 85% 29.52 in 10.0 mi SW 8.1 mph - N/A   Scattered Clouds
3:54 AM 22.8 °F 14.5 °F 19.0 °F 85% 29.52 in 10.0 mi SW 6.9 mph - N/A   Clear
4:15 AM 23.0 °F 15.8 °F 19.2 °F 85% 29.51 in 10.0 mi SW 5.8 mph - N/A   Clear
4:35 AM 23.5 °F 16.4 °F 19.8 °F 85% 29.51 in 10.0 mi SW 5.8 mph - N/A   Clear
4:54 AM 23.7 °F 17.8 °F 19.8 °F 85% 29.50 in 10.0 mi WSW 4.6 mph - N/A   Clear
5:15 AM 23.7 °F 17.8 °F 19.6 °F 84% 29.49 in 10.0 mi SW 4.6 mph - N/A   Clear
5:35 AM 23.4 °F 17.4 °F 19.4 °F 85% 29.49 in 10.0 mi SW 4.6 mph - N/A   Clear
5:55 AM 23.0 °F - 19.4 °F 86% 29.49 in 10.0 mi Calm Calm - N/A   Clear
6:15 AM 22.1 °F 17.4 °F 19.0 °F 88% 29.49 in 10.0 mi SW 3.5 mph - N/A   Clear
6:35 AM 22.1 °F - 19.0 °F 88% 29.50 in 10.0 mi Calm Calm - N/A   Clear
6:54 AM 22.3 °F 17.6 °F 19.2 °F 88% 29.49 in 10.0 mi SW 3.5 mph - N/A   Clear
7:15 AM 22.8 °F 18.2 °F 19.4 °F 87% 29.50 in 10.0 mi WSW 3.5 mph - N/A   Clear
7:35 AM 22.8 °F 18.2 °F 19.4 °F 87% 29.50 in 10.0 mi WSW 3.5 mph - N/A   Clear
7:54 AM 22.1 °F - 19.2 °F 89% 29.49 in 10.0 mi Calm Calm - N/A   Clear
8:15 AM 22.6 °F - 19.4 °F 87% 29.48 in 10.0 mi Calm Calm - N/A   Clear
8:34 AM 23.5 °F - 20.1 °F 87% 29.48 in 10.0 mi Calm Calm - N/A   Clear
8:55 AM 24.8 °F 19.1 °F 20.3 °F 83% 29.49 in 10.0 mi WSW 4.6 mph - N/A   Clear
9:15 AM 26.8 °F 21.4 °F 21.2 °F 79% 29.50 in 10.0 mi West 4.6 mph - N/A   Clear
9:34 AM 27.1 °F 20.7 °F 21.7 °F 80% 29.51 in 10.0 mi WSW 5.8 mph - N/A   Clear
9:55 AM 27.3 °F 22.0 °F 21.7 °F 80% 29.51 in 10.0 mi West 4.6 mph - N/A   Clear
10:14 AM 28.6 °F 22.4 °F 22.3 °F 77% 29.51 in 10.0 mi West 5.8 mph - 0.01 in   Clear
10:35 AM 29.3 °F - 22.6 °F 76% 29.50 in 10.0 mi Calm Calm - 0.02 in   Clear
10:55 AM 30.2 °F 26.7 °F 22.8 °F 74% 29.50 in 10.0 mi West 3.5 mph - 0.03 in   Clear
11:14 AM 31.6 °F 28.3 °F 23.4 °F 71% 29.49 in 10.0 mi West 3.5 mph - 0.01 in   Clear
11:35 AM 32.0 °F 28.7 °F 23.5 °F 71% 29.49 in 10.0 mi West 3.5 mph - 0.01 in   Clear
11:55 AM 32.0 °F - 23.5 °F 71% 29.47 in 10.0 mi Calm Calm - 0.02 in   Clear
12:14 PM 31.1 °F - 23.7 °F 74% 29.45 in 10.0 mi Calm Calm - N/A   Clear
12:35 PM 31.1 °F - 23.5 °F 74% 29.44 in 10.0 mi Calm Calm - N/A   Clear
12:55 PM 32.0 °F - 24.1 °F 73% 29.44 in 10.0 mi Calm Calm - N/A   Clear
1:14 PM 32.9 °F 27.5 °F 24.1 °F 70% 29.46 in 10.0 mi WNW 5.8 mph - N/A   Clear
1:35 PM 33.4 °F - 24.4 °F 70% 29.44 in 10.0 mi Calm Calm - N/A   Clear
1:55 PM 32.5 °F - 24.3 °F 72% 29.43 in 10.0 mi Calm Calm - N/A   Clear
2:14 PM 32.2 °F - 24.3 °F 73% 29.44 in 10.0 mi Calm Calm - N/A   Clear
2:35 PM 34.2 °F 31.2 °F 24.8 °F 69% 29.43 in 10.0 mi WNW 3.5 mph - N/A   Clear
2:55 PM 34.7 °F 29.6 °F 25.3 °F 69% 29.45 in 10.0 mi WNW 5.8 mph - N/A   Clear
3:14 PM 33.4 °F - 25.3 °F 72% 29.46 in 10.0 mi Calm Calm - N/A   Mostly Cloudy
3:35 PM 33.3 °F 28.9 °F 25.5 °F 73% 29.46 in 10.0 mi NW 4.6 mph - N/A   Overcast
3:54 PM 32.0 °F 26.4 °F 25.2 °F 76% 29.48 in 10.0 mi North 5.8 mph - N/A   Overcast
4:15 PM 31.1 °F 25.4 °F 25.3 °F 79% 29.49 in 10.0 mi North 5.8 mph - N/A   Overcast
4:35 PM 31.1 °F 25.4 °F 25.3 °F 79% 29.51 in 10.0 mi North 5.8 mph - N/A   Overcast
4:54 PM 31.1 °F 24.5 °F 25.3 °F 79% 29.51 in 10.0 mi North 6.9 mph - N/A   Overcast
5:15 PM 30.7 °F 24.9 °F 25.5 °F 81% 29.53 in 10.0 mi NNW 5.8 mph - N/A   Overcast
5:35 PM 30.2 °F 23.4 °F 25.2 °F 82% 29.53 in 10.0 mi NNW 6.9 mph - N/A   Overcast
5:54 PM 29.8 °F 24.9 °F 25.3 °F 83% 29.54 in 10.0 mi NNW 4.6 mph - N/A   Overcast
6:15 PM 29.8 °F 23.0 °F 25.7 °F 85% 29.56 in 10.0 mi NW 6.9 mph - N/A   Overcast
6:35 PM 29.8 °F 23.9 °F 25.7 °F 85% 29.57 in 10.0 mi NW 5.8 mph - N/A   Overcast
6:54 PM 29.7 °F 22.8 °F 26.1 °F 86% 29.59 in 10.0 mi NW 6.9 mph - N/A   Overcast
7:15 PM 29.3 °F 22.3 °F 25.7 °F 86% 29.59 in 10.0 mi NW 6.9 mph - N/A   Overcast
7:35 PM 29.7 °F 22.8 °F 25.3 °F 84% 29.60 in 10.0 mi NNW 6.9 mph - N/A   Overcast
7:54 PM 29.5 °F 21.8 °F 24.3 °F 81% 29.61 in 10.0 mi North 8.1 mph - N/A   Overcast
8:15 PM 28.9 °F 22.8 °F 23.7 °F 81% 29.62 in 10.0 mi NNW 5.8 mph - N/A   Overcast
8:35 PM 28.4 °F - 22.8 °F 80% 29.62 in 10.0 mi Calm Calm - N/A   Overcast
8:54 PM 25.2 °F 20.9 °F 20.5 °F 82% 29.63 in 10.0 mi WNW 3.5 mph - N/A   Mostly Cloudy
9:15 PM 25.7 °F - 20.8 °F 82% 29.63 in 10.0 mi Calm Calm - N/A   Overcast
9:35 PM 27.3 °F 23.4 °F 21.7 °F 80% 29.64 in 10.0 mi WNW 3.5 mph - N/A   Overcast
9:54 PM 27.5 °F - 21.7 °F 79% 29.65 in 10.0 mi Calm Calm - N/A   Overcast
10:15 PM 27.1 °F - 21.6 °F 80% 29.65 in 10.0 mi Calm Calm - N/A   Overcast
10:35 PM 27.3 °F - 22.1 °F 81% 29.66 in 10.0 mi Calm Calm - N/A   Overcast
10:55 PM 27.9 °F - 22.1 °F 79% 29.66 in 10.0 mi Calm Calm - N/A   Overcast
11:15 PM 27.9 °F - 22.1 °F 79% 29.67 in 10.0 mi Calm Calm - N/A   Overcast
11:35 PM 27.3 °F - 22.1 °F 81% 29.68 in 10.0 mi Calm Calm - N/A   Overcast
11:55 PM 27.5 °F - 22.5 °F 81% 29.69 in 10.0 mi Calm Calm - N/A   Overcast